Time,TemperatureF,DewpointF,PressureIn,WindDirection,WindDirectionDegrees,WindSpeedMPH,WindSpeedGustMPH,Humidity,HourlyPrecipIn,Conditions,Clouds,dailyrainin,SoftwareType,DateUTC
2013-09-20 00:01:00,50.6,49.8,30.24,WSW,246,0.0,0.0,97,0.00,,---,0.00,VWS V13.01,2013-09-20 04:01:00,
2013-09-20 00:02:00,50.6,49.8,30.24,WSW,246,0.0,0.0,97,0.00,,---,0.00,VWS V13.01,2013-09-20 04:02:00,
2013-09-20 00:03:00,50.5,49.7,30.24,WSW,246,0.0,0.0,97,0.00,,---,0.00,VWS V13.01,2013-09-20 04:03:00,
2013-09-20 00:07:00,50.7,49.9,30.24,WSW,246,0.0,0.0,97,0.00,,---,0.00,VWS V13.01,2013-09-20 04:07:00,
2013-09-20 00:12:00,51.3,50.5,30.24,WSW,246,0.0,1.0,97,0.00,,---,0.00,VWS V13.01,2013-09-20 04:12:00,
2013-09-20 00:18:00,52.5,52.0,30.25,WSW,246,0.0,2.0,98,0.00,,---,0.00,VWS V13.01,2013-09-20 04:18:00,
2013-09-20 00:23:00,53.3,52.8,30.25,WSW,246,0.0,2.0,98,0.00,,---,0.00,VWS V13.01,2013-09-20 04:23:00,
2013-09-20 00:28:00,53.5,53.0,30.24,WSW,246,0.0,2.0,98,0.00,,---,0.00,VWS V13.01,2013-09-20 04:28:00,
2013-09-20 00:33:00,53.6,53.0,30.24,WSW,246,0.0,0.0,98,0.00,,---,0.00,VWS V13.01,2013-09-20 04:33:00,
2013-09-20 00:38:00,53.6,53.0,30.24,WSW,246,0.0,0.0,98,0.00,,---,0.00,VWS V13.01,2013-09-20 04:38:00,
2013-09-20 00:43:00,53.3,52.8,30.24,WSW,246,0.0,0.0,98,0.00,,---,0.00,VWS V13.01,2013-09-20 04:43:00,
2013-09-20 00:48:00,53.0,52.5,30.24,WSW,246,0.0,0.0,98,0.00,,---,0.00,VWS V13.01,2013-09-20 04:48:00,
2013-09-20 00:53:00,52.8,52.2,30.24,WSW,246,0.0,0.0,98,0.00,,---,0.00,VWS V13.01,2013-09-20 04:53:00,
2013-09-20 00:58:00,52.7,52.2,30.24,WSW,246,0.0,0.0,98,0.00,,---,0.00,VWS V13.01,2013-09-20 04:58:00,
2013-09-20 01:03:00,52.7,-90.3,30.25,WSW,246,0.0,0.0,98,0.00,,---,0.00,VWS V13.01,2013-09-20 05:03:00,
2013-09-20 01:09:00,52.7,-90.3,30.25,WSW,246,0.0,0.0,98,0.00,,---,0.00,VWS V13.01,2013-09-20 05:09:00,
2013-09-20 01:14:00,52.7,-90.3,30.26,WSW,246,0.0,0.0,98,0.00,,---,0.00,VWS V13.01,2013-09-20 05:14:00,
2013-09-20 01:19:00,52.7,-90.3,30.27,WSW,246,0.0,0.0,98,0.00,,---,0.00,VWS V13.01,2013-09-20 05:19:00,
2013-09-20 01:24:00,52.7,-90.3,30.28,WSW,246,0.0,0.0,98,0.00,,---,0.00,VWS V13.01,2013-09-20 05:24:00,
2013-09-20 01:29:00,52.7,-90.3,30.28,WSW,246,0.0,0.0,98,0.00,,---,0.00,VWS V13.01,2013-09-20 05:29:00,
2013-09-20 01:34:00,52.7,-90.3,30.29,WSW,246,0.0,0.0,98,0.00,,---,0.00,VWS V13.01,2013-09-20 05:34:00,
2013-09-20 01:39:00,52.7,-90.3,30.30,WSW,246,0.0,0.0,98,0.00,,---,0.00,VWS V13.01,2013-09-20 05:39:00,
2013-09-20 01:44:00,52.7,-90.3,30.30,WSW,246,0.0,1.0,98,0.00,,---,0.00,VWS V13.01,2013-09-20 05:44:00,
2013-09-20 01:49:00,52.7,-90.3,30.31,WSW,246,0.0,1.0,98,0.00,,---,0.00,VWS V13.01,2013-09-20 05:49:00,
2013-09-20 01:54:00,52.7,-90.3,30.31,WSW,246,0.0,1.0,98,0.00,,---,0.00,VWS V13.01,2013-09-20 05:54:00,
2013-09-20 02:00:00,52.7,-90.3,30.31,WSW,246,0.0,1.0,98,0.00,,---,0.00,VWS V13.01,2013-09-20 06:00:00,
2013-09-20 02:05:00,52.7,-90.3,30.32,WSW,246,0.0,0.0,98,0.00,,---,0.00,VWS V13.01,2013-09-20 06:05:00,
2013-09-20 02:10:00,52.7,-90.3,30.33,WSW,246,0.0,0.0,98,0.00,,---,0.00,VWS V13.01,2013-09-20 06:10:00,
2013-09-20 02:15:00,52.7,-90.3,30.33,WSW,246,0.0,1.0,98,0.00,,---,0.00,VWS V13.01,2013-09-20 06:15:00,
2013-09-20 02:20:00,52.7,-90.3,30.34,WSW,246,0.0,1.0,98,0.00,,---,0.00,VWS V13.01,2013-09-20 06:20:00,
2013-09-20 02:25:00,52.7,-90.3,30.34,WSW,246,0.0,1.0,98,0.00,,---,0.00,VWS V13.01,2013-09-20 06:25:00,
2013-09-20 02:30:00,52.7,-90.3,30.35,WSW,246,0.0,0.0,98,0.00,,---,0.00,VWS V13.01,2013-09-20 06:30:00,
2013-09-20 02:35:00,52.7,-90.3,30.35,WSW,246,0.0,0.0,98,0.00,,---,0.00,VWS V13.01,2013-09-20 06:35:00,
2013-09-20 02:40:00,52.7,-90.3,30.35,WSW,246,0.0,0.0,98,0.00,,---,0.00,VWS V13.01,2013-09-20 06:40:00,
2013-09-20 02:45:00,52.7,-90.3,30.36,WSW,246,0.0,1.0,98,0.00,,---,0.00,VWS V13.01,2013-09-20 06:45:00,
2013-09-20 02:50:00,52.7,-90.3,30.36,WSW,246,0.0,1.0,98,0.00,,---,0.00,VWS V13.01,2013-09-20 06:50:00,
2013-09-20 02:55:00,52.7,-90.3,30.36,WSW,246,0.0,1.0,98,0.00,,---,0.00,VWS V13.01,2013-09-20 06:55:00,
2013-09-20 03:00:00,52.7,-90.3,30.37,WSW,246,0.0,0.0,98,0.00,,---,0.00,VWS V13.01,2013-09-20 07:00:00,
2013-09-20 03:05:00,52.7,-90.3,30.37,WSW,246,0.0,0.0,98,0.00,,---,0.00,VWS V13.01,2013-09-20 07:05:00,
2013-09-20 03:10:00,52.7,-90.3,30.38,WSW,246,0.0,0.0,98,0.00,,---,0.00,VWS V13.01,2013-09-20 07:10:00,
2013-09-20 03:16:00,52.7,-90.3,30.39,WSW,246,0.0,0.0,98,0.00,,---,0.00,VWS V13.01,2013-09-20 07:16:00,
2013-09-20 03:21:00,52.7,-90.3,30.39,WSW,246,0.0,0.0,98,0.00,,---,0.00,VWS V13.01,2013-09-20 07:21:00,
2013-09-20 03:26:00,52.7,-90.3,30.40,WSW,246,0.0,0.0,98,0.00,,---,0.00,VWS V13.01,2013-09-20 07:26:00,
2013-09-20 03:31:00,52.7,-90.3,30.41,WSW,246,0.0,0.0,98,0.00,,---,0.00,VWS V13.01,2013-09-20 07:31:00,
2013-09-20 03:36:00,52.7,-90.3,30.41,WSW,246,0.0,0.0,98,0.00,,---,0.00,VWS V13.01,2013-09-20 07:36:00,
2013-09-20 03:41:00,52.7,-90.3,30.41,WSW,246,0.0,0.0,98,0.00,,---,0.00,VWS V13.01,2013-09-20 07:41:00,
2013-09-20 03:46:00,52.7,-90.3,30.41,WSW,246,0.0,0.0,98,0.00,,---,0.00,VWS V13.01,2013-09-20 07:46:00,
2013-09-20 03:51:00,52.7,-90.3,30.42,WSW,246,0.0,0.0,98,0.00,,---,0.00,VWS V13.01,2013-09-20 07:51:00,
2013-09-20 03:56:00,52.7,-90.3,30.42,WSW,246,0.0,0.0,98,0.00,,---,0.00,VWS V13.01,2013-09-20 07:56:00,
2013-09-20 04:01:00,52.7,-90.3,30.42,WSW,246,0.0,0.0,98,0.00,,---,0.00,VWS V13.01,2013-09-20 08:01:00,
2013-09-20 04:06:00,52.7,-90.3,30.42,WSW,246,0.0,0.0,98,0.00,,---,0.00,VWS V13.01,2013-09-20 08:06:00,
2013-09-20 04:11:00,52.7,-90.3,30.42,WSW,246,0.0,0.0,98,0.00,,---,0.00,VWS V13.01,2013-09-20 08:11:00,
2013-09-20 04:16:00,52.7,-90.3,30.42,WSW,246,0.0,0.0,98,0.00,,---,0.00,VWS V13.01,2013-09-20 08:16:00,
2013-09-20 04:21:00,52.7,-90.3,30.42,WSW,246,0.0,0.0,98,0.00,,---,0.00,VWS V13.01,2013-09-20 08:21:00,
2013-09-20 04:26:00,52.7,-90.3,30.42,WSW,246,0.0,1.0,98,0.00,,---,0.00,VWS V13.01,2013-09-20 08:26:00,
2013-09-20 04:32:00,52.7,-90.3,30.43,WSW,246,0.0,0.0,98,0.00,,---,0.00,VWS V13.01,2013-09-20 08:32:00,
2013-09-20 04:37:00,52.7,-90.3,30.42,WSW,246,0.0,0.0,98,0.00,,---,0.00,VWS V13.01,2013-09-20 08:37:00,
2013-09-20 04:42:00,52.7,-90.3,30.42,WSW,246,0.0,0.0,98,0.01,,---,0.01,VWS V13.01,2013-09-20 08:42:00,
2013-09-20 04:47:00,52.7,-90.3,30.42,WSW,246,0.0,0.0,98,0.01,,---,0.01,VWS V13.01,2013-09-20 08:47:00,
2013-09-20 04:52:00,52.7,-90.3,30.43,WSW,246,0.0,0.0,98,0.01,,---,0.01,VWS V13.01,2013-09-20 08:52:00,
2013-09-20 04:57:00,52.7,-90.3,30.43,WSW,246,0.0,1.0,98,0.01,,---,0.01,VWS V13.01,2013-09-20 08:57:00,
2013-09-20 05:02:00,52.7,-90.3,30.42,WSW,246,0.0,0.0,98,0.01,,---,0.01,VWS V13.01,2013-09-20 09:02:00,
2013-09-20 05:07:00,52.7,-90.3,30.42,WSW,246,0.0,0.0,98,0.01,,---,0.01,VWS V13.01,2013-09-20 09:07:00,
2013-09-20 05:12:00,52.7,-90.3,30.42,WSW,246,0.0,0.0,98,0.01,,---,0.01,VWS V13.01,2013-09-20 09:12:00,
2013-09-20 05:17:00,52.7,-90.3,30.43,WSW,246,0.0,0.0,98,0.01,,---,0.01,VWS V13.01,2013-09-20 09:17:00,
2013-09-20 05:22:00,52.7,-90.3,30.42,WSW,246,0.0,0.0,98,0.01,,---,0.01,VWS V13.01,2013-09-20 09:22:00,
2013-09-20 05:27:00,52.7,-90.3,30.43,WSW,246,0.0,0.0,98,0.01,,---,0.01,VWS V13.01,2013-09-20 09:27:00,
2013-09-20 05:32:00,52.7,-90.3,30.43,WSW,246,0.0,0.0,98,0.01,,---,0.01,VWS V13.01,2013-09-20 09:32:00,
2013-09-20 05:37:00,52.7,-90.3,30.44,WSW,246,0.0,0.0,98,0.01,,---,0.01,VWS V13.01,2013-09-20 09:37:00,
2013-09-20 05:42:00,52.7,-90.3,30.43,WSW,246,0.0,0.0,98,0.01,,---,0.01,VWS V13.01,2013-09-20 09:42:00,
2013-09-20 05:47:00,52.7,-90.3,30.43,WSW,246,0.0,0.0,98,0.01,,---,0.01,VWS V13.01,2013-09-20 09:47:00,
2013-09-20 05:53:00,52.7,-90.3,30.43,WSW,246,0.0,1.0,98,0.01,,---,0.01,VWS V13.01,2013-09-20 09:53:00,
2013-09-20 05:58:00,52.7,-90.3,30.43,WSW,246,0.0,1.0,98,0.01,,---,0.01,VWS V13.01,2013-09-20 09:58:00,
2013-09-20 06:03:00,52.7,-90.3,30.43,WSW,246,0.0,1.0,98,0.00,,---,0.01,VWS V13.01,2013-09-20 10:03:00,
2013-09-20 06:08:00,52.7,-90.3,30.43,WSW,246,0.0,1.0,98,0.00,,---,0.01,VWS V13.01,2013-09-20 10:08:00,
2013-09-20 06:13:00,52.7,-90.3,30.43,WSW,246,0.0,1.0,98,0.00,,---,0.01,VWS V13.01,2013-09-20 10:13:00,
2013-09-20 06:19:00,52.7,-90.3,30.43,WSW,246,0.0,1.0,98,0.00,,---,0.01,VWS V13.01,2013-09-20 10:19:00,
2013-09-20 06:24:00,52.7,-90.3,30.43,WSW,246,0.0,1.0,98,0.00,,---,0.01,VWS V13.01,2013-09-20 10:24:00,
2013-09-20 06:29:00,52.7,-90.3,30.43,WSW,246,0.0,1.0,98,0.00,,---,0.01,VWS V13.01,2013-09-20 10:29:00,
2013-09-20 06:34:00,52.7,-90.3,30.43,WSW,246,0.0,1.0,98,0.00,,---,0.01,VWS V13.01,2013-09-20 10:34:00,
2013-09-20 06:39:00,52.7,-90.3,30.43,WSW,246,0.0,1.0,98,0.00,,---,0.01,VWS V13.01,2013-09-20 10:39:00,
2013-09-20 06:44:00,52.7,-90.3,30.43,WSW,246,0.0,1.0,98,0.00,,---,0.01,VWS V13.01,2013-09-20 10:44:00,
2013-09-20 06:49:00,52.7,-90.3,30.44,WSW,246,0.0,1.0,98,0.00,,---,0.01,VWS V13.01,2013-09-20 10:49:00,
2013-09-20 06:54:00,52.7,-90.3,30.44,WSW,246,0.0,1.0,98,0.00,,---,0.01,VWS V13.01,2013-09-20 10:54:00,
2013-09-20 07:00:00,52.7,-90.3,30.44,WSW,246,0.0,1.0,98,0.00,,---,0.01,VWS V13.01,2013-09-20 11:00:00,
2013-09-20 07:05:00,52.7,-90.3,30.44,WSW,246,0.0,0.0,98,0.00,,---,0.01,VWS V13.01,2013-09-20 11:05:00,
2013-09-20 07:10:00,52.7,-90.3,30.43,WSW,246,0.0,0.0,98,0.00,,---,0.01,VWS V13.01,2013-09-20 11:10:00,
2013-09-20 07:15:00,52.7,-90.3,30.43,WSW,246,0.0,0.0,98,0.00,,---,0.01,VWS V13.01,2013-09-20 11:15:00,
2013-09-20 07:20:00,52.7,-90.3,30.43,WSW,246,0.0,0.0,98,0.00,,---,0.01,VWS V13.01,2013-09-20 11:20:00,
2013-09-20 07:25:00,52.7,-90.3,30.43,WSW,246,0.0,0.0,98,0.00,,---,0.01,VWS V13.01,2013-09-20 11:25:00,
2013-09-20 07:30:00,52.7,-90.3,30.43,WSW,246,0.0,0.0,98,0.00,,---,0.01,VWS V13.01,2013-09-20 11:30:00,
2013-09-20 07:35:00,52.7,-90.3,30.43,WSW,246,0.0,0.0,98,0.00,,---,0.01,VWS V13.01,2013-09-20 11:35:00,
2013-09-20 07:40:00,52.7,-90.3,30.43,WSW,246,0.0,0.0,98,0.00,,---,0.01,VWS V13.01,2013-09-20 11:40:00,
2013-09-20 07:46:00,52.7,-90.3,30.43,WSW,246,0.0,0.0,98,0.00,,---,0.01,VWS V13.01,2013-09-20 11:46:00,
2013-09-20 07:51:00,52.7,-90.3,30.43,WSW,246,0.0,0.0,98,0.00,,---,0.01,VWS V13.01,2013-09-20 11:51:00,
2013-09-20 07:56:00,52.7,-90.3,30.43,WSW,246,0.0,1.0,98,0.00,,---,0.01,VWS V13.01,2013-09-20 11:56:00,
2013-09-20 08:01:00,52.7,-90.3,30.42,WSW,246,0.0,0.0,98,0.00,,---,0.01,VWS V13.01,2013-09-20 12:01:00,
2013-09-20 08:06:00,52.7,-90.3,30.42,WSW,246,0.0,1.0,98,0.00,,---,0.01,VWS V13.01,2013-09-20 12:06:00,
2013-09-20 08:11:00,52.7,-90.3,30.42,WSW,246,0.0,1.0,98,0.00,,---,0.01,VWS V13.01,2013-09-20 12:11:00,
2013-09-20 08:16:00,52.7,-90.3,30.42,WSW,246,0.0,1.0,98,0.00,,---,0.01,VWS V13.01,2013-09-20 12:16:00,
2013-09-20 08:21:00,52.7,-90.3,30.42,WSW,246,0.0,1.0,98,0.00,,---,0.01,VWS V13.01,2013-09-20 12:21:00,
2013-09-20 08:26:00,52.7,-90.3,30.41,WSW,246,0.0,1.0,98,0.00,,---,0.01,VWS V13.01,2013-09-20 12:26:00,
2013-09-20 08:31:00,52.7,-90.3,30.40,WSW,246,0.0,0.0,98,0.00,,---,0.01,VWS V13.01,2013-09-20 12:31:00,
2013-09-20 08:36:00,52.7,-90.3,30.41,WSW,246,0.0,0.0,98,0.00,,---,0.01,VWS V13.01,2013-09-20 12:36:00,
2013-09-20 08:41:00,52.7,-90.3,30.40,WSW,246,0.0,0.0,98,0.00,,---,0.01,VWS V13.01,2013-09-20 12:41:00,
2013-09-20 08:46:00,52.7,-90.3,30.40,WSW,246,0.0,0.0,98,0.00,,---,0.01,VWS V13.01,2013-09-20 12:46:00,
2013-09-20 08:51:00,52.7,-90.3,30.41,WSW,246,0.0,0.0,98,0.00,,---,0.01,VWS V13.01,2013-09-20 12:51:00,
2013-09-20 08:56:00,52.7,-90.3,30.41,WSW,246,0.0,0.0,98,0.00,,---,0.01,VWS V13.01,2013-09-20 12:56:00,
2013-09-20 09:02:00,52.7,-90.3,30.41,WSW,246,0.0,0.0,98,0.00,,---,0.01,VWS V13.01,2013-09-20 13:02:00,
2013-09-20 09:07:00,52.7,-90.3,30.41,WSW,246,0.0,0.0,98,0.00,,---,0.01,VWS V13.01,2013-09-20 13:07:00,
2013-09-20 09:12:00,52.7,-90.3,30.41,WSW,246,0.0,1.0,98,0.00,,---,0.01,VWS V13.01,2013-09-20 13:12:00,
2013-09-20 09:17:00,52.7,-90.3,30.41,WSW,246,0.0,1.0,98,0.00,,---,0.01,VWS V13.01,2013-09-20 13:17:00,
2013-09-20 09:22:00,52.7,-90.3,30.42,WSW,246,0.0,1.0,98,0.00,,---,0.01,VWS V13.01,2013-09-20 13:22:00,
2013-09-20 09:27:00,52.7,-90.3,30.41,WSW,246,0.0,1.0,98,0.00,,---,0.01,VWS V13.01,2013-09-20 13:27:00,
2013-09-20 09:32:00,52.7,-90.3,30.41,WSW,246,0.0,0.0,98,0.00,,---,0.01,VWS V13.01,2013-09-20 13:32:00,
2013-09-20 09:37:00,52.7,-90.3,30.41,WSW,246,0.0,0.0,98,0.00,,---,0.01,VWS V13.01,2013-09-20 13:37:00,
2013-09-20 09:42:00,52.7,-90.3,30.40,WSW,246,0.0,3.0,98,0.00,,---,0.01,VWS V13.01,2013-09-20 13:42:00,
2013-09-20 09:47:00,52.7,-90.3,30.40,WSW,246,0.0,4.0,98,0.00,,---,0.01,VWS V13.01,2013-09-20 13:47:00,
2013-09-20 09:53:00,52.7,-90.3,30.40,WSW,245,0.0,5.0,98,0.00,,---,0.01,VWS V13.01,2013-09-20 13:53:00,
2013-09-20 09:58:00,52.7,-90.3,30.39,WSW,238,2.0,5.0,98,0.00,,---,0.01,VWS V13.01,2013-09-20 13:58:00,
2013-09-20 10:03:00,52.7,-90.3,30.39,East,85,6.0,7.0,98,0.00,,---,0.01,VWS V13.01,2013-09-20 14:03:00,
2013-09-20 10:08:00,52.7,-90.3,30.39,East,86,0.0,8.0,98,0.00,,---,0.01,VWS V13.01,2013-09-20 14:08:00,
2013-09-20 10:13:00,52.7,-90.3,30.39,NE,46,3.0,9.0,98,0.00,,---,0.01,VWS V13.01,2013-09-20 14:13:00,
2013-09-20 10:18:00,52.7,-90.3,30.40,NE,53,0.0,9.0,98,0.00,,---,0.01,VWS V13.01,2013-09-20 14:18:00,
2013-09-20 10:23:00,52.7,-90.3,30.40,NE,49,0.0,9.0,98,0.00,,---,0.01,VWS V13.01,2013-09-20 14:23:00,
2013-09-20 10:28:00,52.7,-90.3,30.40,West,278,7.0,10.0,98,0.00,,---,0.01,VWS V13.01,2013-09-20 14:28:00,
2013-09-20 10:33:00,52.7,-90.3,30.40,WNW,282,7.0,12.0,98,0.00,,---,0.01,VWS V13.01,2013-09-20 14:33:00,
2013-09-20 10:38:00,52.7,-90.3,30.40,West,272,0.0,12.0,98,0.00,,---,0.01,VWS V13.01,2013-09-20 14:38:00,
2013-09-20 10:43:00,52.7,-90.3,30.40,West,277,0.0,12.0,98,0.00,,---,0.01,VWS V13.01,2013-09-20 14:43:00,
2013-09-20 10:48:00,52.7,-90.3,30.39,West,275,1.0,12.0,98,0.00,,---,0.01,VWS V13.01,2013-09-20 14:48:00,
2013-09-20 10:53:00,52.7,-90.3,30.40,WSW,256,6.0,12.0,98,0.00,,---,0.01,VWS V13.01,2013-09-20 14:53:00,
2013-09-20 10:58:00,52.7,-90.3,30.39,West,263,0.0,12.0,98,0.00,,---,0.01,VWS V13.01,2013-09-20 14:58:00,
2013-09-20 11:03:00,52.7,-90.3,30.39,WSW,252,2.0,8.0,98,0.00,,---,0.01,VWS V13.01,2013-09-20 15:03:00,
2013-09-20 11:08:00,52.7,-90.3,30.40,SSW,209,2.0,13.0,98,0.00,,---,0.01,VWS V13.01,2013-09-20 15:08:00,
2013-09-20 11:13:00,52.7,-90.3,30.39,West,271,9.0,14.0,98,0.00,,---,0.01,VWS V13.01,2013-09-20 15:13:00,
2013-09-20 11:19:00,52.7,-90.3,30.40,West,269,0.0,14.0,98,0.00,,---,0.01,VWS V13.01,2013-09-20 15:19:00,
2013-09-20 11:24:00,52.7,-93.5,30.40,West,267,9.0,14.0,76,0.00,,---,0.01,VWS V13.01,2013-09-20 15:24:00,
2013-09-20 11:29:00,72.4,65.9,30.40,West,275,9.0,14.0,80,0.00,,---,0.01,VWS V13.01,2013-09-20 15:29:00,
2013-09-20 11:34:00,72.2,65.0,30.39,West,272,5.0,18.0,78,0.00,,---,0.01,VWS V13.01,2013-09-20 15:34:00,
2013-09-20 11:39:00,72.0,66.2,30.39,West,275,7.0,18.0,82,0.00,,---,0.01,VWS V13.01,2013-09-20 15:39:00,
2013-09-20 11:44:00,71.8,66.0,30.38,West,261,1.0,18.0,82,0.00,,---,0.01,VWS V13.01,2013-09-20 15:44:00,
2013-09-20 11:49:00,72.1,65.9,30.38,West,269,9.0,18.0,81,0.00,,---,0.01,VWS V13.01,2013-09-20 15:49:00,
2013-09-20 11:54:00,72.2,66.1,30.38,WSW,238,7.0,18.0,81,0.00,,---,0.01,VWS V13.01,2013-09-20 15:54:00,
2013-09-20 11:59:00,72.5,66.3,30.38,SW,227,5.0,18.0,81,0.00,,---,0.01,VWS V13.01,2013-09-20 15:59:00,
2013-09-20 12:04:00,72.4,65.5,30.38,West,264,2.0,10.0,79,0.00,,---,0.01,VWS V13.01,2013-09-20 16:04:00,
2013-09-20 12:09:00,72.5,65.6,30.37,WNW,291,5.0,10.0,79,0.00,,---,0.01,VWS V13.01,2013-09-20 16:09:00,
2013-09-20 12:14:00,72.7,65.8,30.37,West,267,0.0,10.0,79,0.00,,---,0.01,VWS V13.01,2013-09-20 16:14:00,
2013-09-20 12:19:00,73.1,66.2,30.38,WSW,252,4.0,11.0,79,0.00,,---,0.01,VWS V13.01,2013-09-20 16:19:00,
2013-09-20 12:24:00,72.8,65.9,30.37,West,271,6.0,14.0,79,0.00,,---,0.01,VWS V13.01,2013-09-20 16:24:00,
2013-09-20 12:30:00,72.7,65.8,30.37,West,281,0.0,14.0,79,0.00,,---,0.01,VWS V13.01,2013-09-20 16:30:00,
2013-09-20 12:35:00,72.6,65.7,30.37,West,279,0.0,12.0,79,0.00,,---,0.01,VWS V13.01,2013-09-20 16:35:00,
2013-09-20 12:40:00,72.3,65.4,30.36,West,281,0.0,12.0,79,0.00,,---,0.01,VWS V13.01,2013-09-20 16:40:00,
2013-09-20 12:45:00,72.4,65.5,30.37,WSW,252,7.0,12.0,79,0.00,,---,0.01,VWS V13.01,2013-09-20 16:45:00,
2013-09-20 12:50:00,72.3,66.2,30.36,WSW,253,4.0,12.0,81,0.00,,---,0.01,VWS V13.01,2013-09-20 16:50:00,
2013-09-20 12:55:00,72.1,65.6,30.36,West,270,3.0,12.0,80,0.00,,---,0.01,VWS V13.01,2013-09-20 16:55:00,
2013-09-20 13:00:00,72.1,65.9,30.35,West,271,4.0,4.0,81,0.00,,---,0.01,VWS V13.01,2013-09-20 17:00:00,
2013-09-20 13:06:00,72.6,66.4,30.34,West,271,0.0,4.0,81,0.00,,---,0.01,VWS V13.01,2013-09-20 17:06:00,
2013-09-20 13:11:00,73.5,67.3,30.34,West,263,0.0,4.0,81,0.00,,---,0.01,VWS V13.01,2013-09-20 17:11:00,
2013-09-20 13:16:00,74.5,67.9,30.33,West,261,0.0,6.0,80,0.00,,---,0.01,VWS V13.01,2013-09-20 17:16:00,
2013-09-20 13:21:00,75.5,68.2,30.33,West,261,0.0,7.0,78,0.00,,---,0.01,VWS V13.01,2013-09-20 17:21:00,
2013-09-20 13:26:00,75.5,67.4,30.32,WSW,244,10.0,11.0,76,0.00,,---,0.01,VWS V13.01,2013-09-20 17:26:00,
2013-09-20 13:31:00,76.0,67.5,30.31,East,88,5.0,15.0,75,0.00,,---,0.01,VWS V13.01,2013-09-20 17:31:00,
2013-09-20 13:36:00,76.3,67.4,30.31,West,271,0.0,15.0,74,0.00,,---,0.01,VWS V13.01,2013-09-20 17:36:00,
2013-09-20 13:41:00,76.8,67.9,30.30,WSW,241,1.0,15.0,74,0.00,,---,0.01,VWS V13.01,2013-09-20 17:41:00,
2013-09-20 13:46:00,77.0,67.7,30.30,SSW,213,3.0,15.0,73,0.00,,---,0.01,VWS V13.01,2013-09-20 17:46:00,
2013-09-20 13:51:00,76.2,67.3,30.30,WSW,242,9.0,15.0,74,0.00,,---,0.01,VWS V13.01,2013-09-20 17:51:00,
2013-09-20 13:56:00,76.0,67.9,30.29,SSW,200,8.0,15.0,76,0.00,,---,0.01,VWS V13.01,2013-09-20 17:56:00,
2013-09-20 14:01:00,76.6,68.1,30.30,ESE,117,6.0,13.0,75,0.00,,---,0.01,VWS V13.01,2013-09-20 18:01:00,
2013-09-20 14:06:00,76.7,68.2,30.28,South,172,0.0,14.0,75,0.00,,---,0.01,VWS V13.01,2013-09-20 18:06:00,
2013-09-20 14:11:00,77.6,68.3,30.28,SW,236,2.0,14.0,73,0.00,,---,0.01,VWS V13.01,2013-09-20 18:11:00,
2013-09-20 14:16:00,76.9,67.6,30.28,WSW,253,0.0,14.0,73,0.00,,---,0.01,VWS V13.01,2013-09-20 18:16:00,
2013-09-20 14:21:00,76.5,68.0,30.28,West,277,0.0,14.0,75,0.00,,---,0.01,VWS V13.01,2013-09-20 18:21:00,
2013-09-20 14:27:00,76.9,68.8,30.28,SW,232,3.0,14.0,76,0.00,,---,0.01,VWS V13.01,2013-09-20 18:27:00,
2013-09-20 14:32:00,76.9,68.4,30.27,WNW,284,1.0,7.0,75,0.00,,---,0.01,VWS V13.01,2013-09-20 18:32:00,
2013-09-20 14:37:00,76.8,68.3,30.27,WNW,292,0.0,9.0,75,0.00,,---,0.01,VWS V13.01,2013-09-20 18:37:00,
2013-09-20 14:42:00,76.6,68.1,30.27,WNW,295,0.0,11.0,75,0.00,,---,0.01,VWS V13.01,2013-09-20 18:42:00,
2013-09-20 14:47:00,77.0,68.9,30.27,West,261,4.0,11.0,76,0.00,,---,0.01,VWS V13.01,2013-09-20 18:47:00,
2013-09-20 14:52:00,77.1,68.2,30.27,West,267,4.0,12.0,74,0.00,,---,0.01,VWS V13.01,2013-09-20 18:52:00,
2013-09-20 14:57:00,77.5,68.6,30.27,South,173,4.0,12.0,74,0.00,,---,0.01,VWS V13.01,2013-09-20 18:57:00,
2013-09-20 15:02:00,77.4,68.5,30.27,West,265,2.0,13.0,74,0.00,,---,0.01,VWS V13.01,2013-09-20 19:02:00,
2013-09-20 15:07:00,77.1,68.6,30.26,West,273,0.0,13.0,75,0.00,,---,0.01,VWS V13.01,2013-09-20 19:07:00,
2013-09-20 15:12:00,76.9,68.4,30.26,West,259,0.0,13.0,75,0.00,,---,0.01,VWS V13.01,2013-09-20 19:12:00,
2013-09-20 15:17:00,76.8,68.3,30.26,South,173,0.0,13.0,75,0.00,,---,0.01,VWS V13.01,2013-09-20 19:17:00,
2013-09-20 15:22:00,76.7,68.6,30.26,ESE,122,9.0,13.0,76,0.00,,---,0.01,VWS V13.01,2013-09-20 19:22:00,
2013-09-20 15:27:00,76.5,68.4,30.26,SSE,168,0.0,13.0,76,0.00,,---,0.01,VWS V13.01,2013-09-20 19:27:00,
2013-09-20 15:33:00,76.6,68.5,30.26,WSW,246,0.0,5.0,76,0.00,,---,0.01,VWS V13.01,2013-09-20 19:33:00,
2013-09-20 15:38:00,76.7,68.2,30.25,WSW,245,0.0,5.0,75,0.00,,---,0.01,VWS V13.01,2013-09-20 19:38:00,
2013-09-20 15:43:00,76.6,68.5,30.25,SW,221,0.0,6.0,76,0.00,,---,0.01,VWS V13.01,2013-09-20 19:43:00,
2013-09-20 15:48:00,76.7,68.6,30.25,South,181,2.0,9.0,76,0.00,,---,0.01,VWS V13.01,2013-09-20 19:48:00,
2013-09-20 15:53:00,77.0,68.9,30.25,SSE,153,0.0,9.0,76,0.00,,---,0.01,VWS V13.01,2013-09-20 19:53:00,
2013-09-20 15:58:00,77.2,69.1,30.24,WSW,243,0.0,11.0,76,0.00,,---,0.01,VWS V13.01,2013-09-20 19:58:00,
2013-09-20 16:03:00,77.0,68.5,30.24,ESE,110,0.0,1.0,75,0.00,,---,0.01,VWS V13.01,2013-09-20 20:03:00,
2013-09-20 16:08:00,76.4,68.3,30.24,SW,225,0.0,10.0,76,0.00,,---,0.01,VWS V13.01,2013-09-20 20:08:00,
2013-09-20 16:13:00,76.3,68.6,30.24,SW,225,6.0,10.0,77,0.00,,---,0.01,VWS V13.01,2013-09-20 20:13:00,
2013-09-20 16:19:00,76.2,68.1,30.24,NW,310,0.0,12.0,76,0.00,,---,0.01,VWS V13.01,2013-09-20 20:19:00,
2013-09-20 16:24:00,76.1,68.4,30.24,WNW,290,0.0,12.0,77,0.00,,---,0.01,VWS V13.01,2013-09-20 20:24:00,
2013-09-20 16:29:00,76.0,68.3,30.24,WSW,251,12.0,13.0,77,0.00,,---,0.01,VWS V13.01,2013-09-20 20:29:00,
2013-09-20 16:34:00,75.7,68.4,30.24,WSW,240,0.0,9.0,78,0.00,,---,0.01,VWS V13.01,2013-09-20 20:34:00,
2013-09-20 16:39:00,75.7,68.4,30.24,WSW,252,0.0,9.0,78,0.00,,---,0.01,VWS V13.01,2013-09-20 20:39:00,
2013-09-20 16:44:00,75.8,68.5,30.23,West,278,0.0,9.0,78,0.00,,---,0.01,VWS V13.01,2013-09-20 20:44:00,
2013-09-20 16:49:00,75.9,68.2,30.23,NW,314,0.0,9.0,77,0.00,,---,0.01,VWS V13.01,2013-09-20 20:49:00,
2013-09-20 16:54:00,76.0,68.3,30.23,NW,314,0.0,9.0,77,0.00,,---,0.01,VWS V13.01,2013-09-20 20:54:00,
2013-09-20 16:59:00,75.9,68.2,30.23,West,271,6.0,12.0,77,0.00,,---,0.01,VWS V13.01,2013-09-20 20:59:00,
2013-09-20 17:04:00,75.8,68.5,30.23,WSW,241,1.0,7.0,78,0.00,,---,0.01,VWS V13.01,2013-09-20 21:04:00,
2013-09-20 17:09:00,76.0,68.7,30.22,SSE,164,2.0,8.0,78,0.00,,---,0.01,VWS V13.01,2013-09-20 21:09:00,
2013-09-20 17:14:00,76.1,68.4,30.22,SW,215,0.0,8.0,77,0.00,,---,0.01,VWS V13.01,2013-09-20 21:14:00,
2013-09-20 17:19:00,76.3,68.6,30.22,SW,226,5.0,11.0,77,0.00,,---,0.01,VWS V13.01,2013-09-20 21:19:00,
2013-09-20 17:24:00,76.5,69.1,30.22,WSW,241,0.0,11.0,78,0.00,,---,0.01,VWS V13.01,2013-09-20 21:24:00,
2013-09-20 17:29:00,76.6,68.9,30.22,WSW,249,0.0,11.0,77,0.00,,---,0.01,VWS V13.01,2013-09-20 21:29:00,
2013-09-20 17:34:00,76.6,68.5,30.21,WSW,253,1.0,5.0,76,0.00,,---,0.01,VWS V13.01,2013-09-20 21:34:00,
2013-09-20 17:40:00,76.5,68.8,30.21,WSW,253,0.0,5.0,77,0.00,,---,0.01,VWS V13.01,2013-09-20 21:40:00,
2013-09-20 17:45:00,76.3,68.6,30.21,WSW,253,0.0,5.0,77,0.00,,---,0.01,VWS V13.01,2013-09-20 21:45:00,
2013-09-20 17:50:00,76.2,68.5,30.21,West,260,0.0,5.0,77,0.00,,---,0.01,VWS V13.01,2013-09-20 21:50:00,
2013-09-20 17:55:00,75.9,68.9,30.21,West,261,0.0,5.0,79,0.00,,---,0.01,VWS V13.01,2013-09-20 21:55:00,
2013-09-20 18:00:00,75.8,68.8,30.21,West,260,0.0,0.0,79,0.00,,---,0.01,VWS V13.01,2013-09-20 22:00:00,
2013-09-20 18:05:00,75.5,68.2,30.21,SSE,149,0.0,9.0,78,0.00,,---,0.01,VWS V13.01,2013-09-20 22:05:00,
2013-09-20 18:10:00,75.5,68.2,30.21,West,259,0.0,9.0,78,0.00,,---,0.01,VWS V13.01,2013-09-20 22:10:00,
2013-09-20 18:15:00,75.2,69.3,30.21,West,259,0.0,9.0,82,0.00,,---,0.01,VWS V13.01,2013-09-20 22:15:00,
2013-09-20 18:20:00,74.7,68.5,30.20,WSW,256,0.0,9.0,81,0.00,,---,0.01,VWS V13.01,2013-09-20 22:20:00,
2013-09-20 18:25:00,74.8,68.2,30.20,WSW,249,0.0,9.0,80,0.00,,---,0.01,VWS V13.01,2013-09-20 22:25:00,
2013-09-20 18:30:00,74.8,68.6,30.20,WSW,250,0.0,0.0,81,0.00,,---,0.01,VWS V13.01,2013-09-20 22:30:00,
2013-09-20 18:35:00,74.0,68.5,30.20,WSW,250,0.0,1.0,83,0.00,,---,0.01,VWS V13.01,2013-09-20 22:35:00,
2013-09-20 18:40:00,73.3,68.2,30.20,WSW,250,0.0,1.0,84,0.00,,---,0.01,VWS V13.01,2013-09-20 22:40:00,
2013-09-20 18:45:00,72.6,68.2,30.20,WSW,250,0.0,1.0,86,0.00,,---,0.01,VWS V13.01,2013-09-20 22:45:00,
2013-09-20 18:51:00,72.0,67.6,30.20,WSW,250,0.0,1.0,86,0.00,,---,0.01,VWS V13.01,2013-09-20 22:51:00,
2013-09-20 18:56:00,71.9,67.5,30.20,WSW,250,0.0,1.0,86,0.00,,---,0.01,VWS V13.01,2013-09-20 22:56:00,
2013-09-20 19:01:00,72.1,67.3,30.20,WSW,250,0.0,0.0,85,0.00,,---,0.01,VWS V13.01,2013-09-20 23:01:00,
2013-09-20 19:06:00,72.0,67.2,30.20,WSW,250,0.0,1.0,85,0.00,,---,0.01,VWS V13.01,2013-09-20 23:06:00,
2013-09-20 19:11:00,71.6,67.2,30.20,WSW,250,0.0,1.0,86,0.00,,---,0.01,VWS V13.01,2013-09-20 23:11:00,
2013-09-20 19:16:00,70.9,66.8,30.20,WSW,250,0.0,1.0,87,0.00,,---,0.01,VWS V13.01,2013-09-20 23:16:00,
2013-09-20 19:21:00,70.3,66.6,30.20,WSW,250,0.0,1.0,88,0.00,,---,0.01,VWS V13.01,2013-09-20 23:21:00,
2013-09-20 19:26:00,69.7,66.3,30.19,WSW,250,0.0,1.0,89,0.00,,---,0.01,VWS V13.01,2013-09-20 23:26:00,
2013-09-20 19:31:00,69.0,65.9,30.19,WSW,250,0.0,0.0,90,0.00,,---,0.01,VWS V13.01,2013-09-20 23:31:00,
2013-09-20 19:36:00,68.6,65.9,30.19,WSW,250,0.0,1.0,91,0.00,,---,0.01,VWS V13.01,2013-09-20 23:36:00,
2013-09-20 19:41:00,68.2,65.5,30.19,WSW,250,0.0,1.0,91,0.00,,---,0.01,VWS V13.01,2013-09-20 23:41:00,
2013-09-20 19:46:00,67.7,65.0,30.19,WSW,250,0.0,1.0,91,0.00,,---,0.01,VWS V13.01,2013-09-20 23:46:00,
2013-09-20 19:51:00,67.2,64.5,30.19,WSW,250,0.0,1.0,91,0.00,,---,0.01,VWS V13.01,2013-09-20 23:51:00,
2013-09-20 19:57:00,67.0,64.6,30.19,WSW,250,0.0,1.0,92,0.00,,---,0.01,VWS V13.01,2013-09-20 23:57:00,
2013-09-20 20:02:00,66.5,64.4,30.19,WSW,250,0.0,0.0,93,0.00,,---,0.01,VWS V13.01,2013-09-21 00:02:00,
2013-09-20 20:07:00,66.3,64.2,30.19,WSW,250,0.0,0.0,93,0.00,,---,0.01,VWS V13.01,2013-09-21 00:07:00,
2013-09-20 20:12:00,66.1,64.3,30.19,WSW,250,0.0,0.0,94,0.00,,---,0.01,VWS V13.01,2013-09-21 00:12:00,
2013-09-20 20:17:00,66.1,64.3,30.19,WSW,250,0.0,0.0,94,0.00,,---,0.01,VWS V13.01,2013-09-21 00:17:00,
2013-09-20 20:22:00,66.1,64.3,30.19,WSW,250,0.0,0.0,94,0.00,,---,0.01,VWS V13.01,2013-09-21 00:22:00,
2013-09-20 20:27:00,66.1,64.3,30.19,WSW,250,0.0,0.0,94,0.00,,---,0.01,VWS V13.01,2013-09-21 00:27:00,
2013-09-20 20:32:00,66.0,64.5,30.20,WSW,250,0.0,1.0,95,0.00,,---,0.01,VWS V13.01,2013-09-21 00:32:00,
2013-09-20 20:37:00,66.1,64.6,30.20,WSW,250,0.0,1.0,95,0.00,,---,0.01,VWS V13.01,2013-09-21 00:37:00,
2013-09-20 20:42:00,66.0,64.5,30.20,WSW,250,0.0,1.0,95,0.00,,---,0.01,VWS V13.01,2013-09-21 00:42:00,
2013-09-20 20:47:00,66.0,64.5,30.19,WSW,250,0.0,1.0,95,0.00,,---,0.01,VWS V13.01,2013-09-21 00:47:00,
2013-09-20 20:53:00,66.0,64.5,30.19,WSW,250,0.0,1.0,95,0.00,,---,0.01,VWS V13.01,2013-09-21 00:53:00,
2013-09-20 20:58:00,66.0,64.5,30.18,WSW,250,0.0,1.0,95,0.00,,---,0.01,VWS V13.01,2013-09-21 00:58:00,
2013-09-20 21:03:00,65.9,64.4,30.18,WSW,250,0.0,0.0,95,0.00,,---,0.01,VWS V13.01,2013-09-21 01:03:00,
2013-09-20 21:08:00,66.1,64.6,30.18,WSW,250,0.0,0.0,95,0.00,,---,0.01,VWS V13.01,2013-09-21 01:08:00,
2013-09-20 21:13:00,66.4,64.9,30.18,WSW,250,1.0,4.0,95,0.00,,---,0.01,VWS V13.01,2013-09-21 01:13:00,
2013-09-20 21:18:00,66.8,65.3,30.19,WSW,250,0.0,6.0,95,0.00,,---,0.01,VWS V13.01,2013-09-21 01:18:00,
2013-09-20 21:23:00,66.9,65.1,30.19,WSW,250,0.0,6.0,94,0.00,,---,0.01,VWS V13.01,2013-09-21 01:23:00,
2013-09-20 21:28:00,66.6,64.8,30.20,WSW,249,0.0,6.0,94,0.00,,---,0.01,VWS V13.01,2013-09-21 01:28:00,
2013-09-20 21:33:00,66.3,64.5,30.19,WSW,249,0.0,0.0,94,0.00,,---,0.01,VWS V13.01,2013-09-21 01:33:00,
2013-09-20 21:38:00,66.1,64.3,30.19,WSW,250,0.0,1.0,94,0.00,,---,0.01,VWS V13.01,2013-09-21 01:38:00,
2013-09-20 21:43:00,66.2,64.7,30.19,WSW,249,0.0,1.0,95,0.00,,---,0.01,VWS V13.01,2013-09-21 01:43:00,
2013-09-20 21:48:00,66.1,64.3,30.19,WSW,249,0.0,1.0,94,0.00,,---,0.01,VWS V13.01,2013-09-21 01:48:00,
2013-09-20 21:54:00,65.7,63.9,30.19,WSW,250,0.0,1.0,94,0.00,,---,0.01,VWS V13.01,2013-09-21 01:54:00,
2013-09-20 21:59:00,65.9,64.4,30.19,West,264,0.0,5.0,95,0.00,,---,0.01,VWS V13.01,2013-09-21 01:59:00,
2013-09-20 22:04:00,65.8,64.3,30.20,West,265,0.0,0.0,95,0.00,,---,0.01,VWS V13.01,2013-09-21 02:04:00,
2013-09-20 22:09:00,66.3,64.8,30.20,West,265,0.0,4.0,95,0.00,,---,0.01,VWS V13.01,2013-09-21 02:09:00,
2013-09-20 22:14:00,66.3,64.5,30.20,West,265,0.0,4.0,94,0.00,,---,0.01,VWS V13.01,2013-09-21 02:14:00,
2013-09-20 22:19:00,66.2,64.4,30.20,West,265,0.0,4.0,94,0.00,,---,0.01,VWS V13.01,2013-09-21 02:19:00,
2013-09-20 22:24:00,66.1,64.6,30.19,West,265,0.0,4.0,95,0.00,,---,0.01,VWS V13.01,2013-09-21 02:24:00,
2013-09-20 22:29:00,66.1,64.6,30.19,West,264,0.0,4.0,95,0.00,,---,0.01,VWS V13.01,2013-09-21 02:29:00,
2013-09-20 22:34:00,66.5,65.0,30.19,West,265,0.0,5.0,95,0.00,,---,0.01,VWS V13.01,2013-09-21 02:34:00,
2013-09-20 22:39:00,66.6,64.8,30.19,West,265,0.0,5.0,94,0.00,,---,0.01,VWS V13.01,2013-09-21 02:39:00,
2013-09-20 22:45:00,66.3,64.5,30.19,West,265,0.0,5.0,94,0.00,,---,0.01,VWS V13.01,2013-09-21 02:45:00,
2013-09-20 22:50:00,66.2,64.4,30.18,West,264,0.0,5.0,94,0.00,,---,0.01,VWS V13.01,2013-09-21 02:50:00,
2013-09-20 22:55:00,66.1,64.3,30.18,West,265,0.0,5.0,94,0.00,,---,0.01,VWS V13.01,2013-09-21 02:55:00,
2013-09-20 23:00:00,65.9,64.1,30.17,West,265,0.0,0.0,94,0.00,,---,0.01,VWS V13.01,2013-09-21 03:00:00,
2013-09-20 23:05:00,65.9,64.4,30.17,West,265,0.0,0.0,95,0.00,,---,0.01,VWS V13.01,2013-09-21 03:05:00,
2013-09-20 23:10:00,65.5,64.0,30.17,West,265,0.0,1.0,95,0.00,,---,0.01,VWS V13.01,2013-09-21 03:10:00,
2013-09-20 23:15:00,65.9,64.7,30.16,West,264,0.0,4.0,96,0.00,,---,0.01,VWS V13.01,2013-09-21 03:15:00,
2013-09-20 23:20:00,66.0,64.5,30.16,West,264,0.0,4.0,95,0.00,,---,0.01,VWS V13.01,2013-09-21 03:20:00,
2013-09-20 23:25:00,66.0,64.5,30.16,West,265,0.0,4.0,95,0.00,,---,0.01,VWS V13.01,2013-09-21 03:25:00,
2013-09-20 23:31:00,65.8,64.3,30.16,West,265,0.0,0.0,95,0.00,,---,0.01,VWS V13.01,2013-09-21 03:31:00,
2013-09-20 23:36:00,65.8,64.3,30.16,West,264,0.0,0.0,95,0.00,,---,0.01,VWS V13.01,2013-09-21 03:36:00,
2013-09-20 23:41:00,65.9,64.4,30.15,West,265,0.0,0.0,95,0.00,,---,0.01,VWS V13.01,2013-09-21 03:41:00,
2013-09-20 23:46:00,66.0,64.5,30.15,West,265,0.0,0.0,95,0.00,,---,0.01,VWS V13.01,2013-09-21 03:46:00,
2013-09-20 23:51:00,66.0,64.5,30.15,West,264,0.0,1.0,95,0.00,,---,0.01,VWS V13.01,2013-09-21 03:51:00,
2013-09-20 23:56:00,66.0,64.5,30.15,West,265,0.0,1.0,95,0.00,,---,0.01,VWS V13.01,2013-09-21 03:56:00,